GW7263 Weather Reports


time (UTC)temp
C
wind
direction
speed
KPH
gust
KPH
rain 1hr
cm
rain 24hr
cm
rain mn
cm
humidity
%
barometer
mb
20260506072606 12 0.0 0.0 0.10 1.50 0.86 95 1021.0
20260506071556 11 0.0 0.0 0.08 1.47 0.84 94 1021.1
20260506070545 11 0.0 0.0 0.00 1.40 0.76 94 1021.1
20260506061558 11 278 0.0 0.0 0.05 1.22 0.58 95 1020.9
20260506060606 11 286 0.0 1.6 0.00 1.17 0.53 94 1020.9
20260506050606 11 0.0 0.0 0.00 1.09 0.46 96 1021.1
20260506044526 11 258 0.0 1.6 0.00 1.09 0.46 96 1021.0
20260506043518 11 250 0.0 1.6 0.00 1.09 0.46 96 1020.8
20260506042629 11 0.0 0.0 0.00 1.09 0.46 96 1020.8
20260506041558 11 0.0 0.0 0.00 1.09 0.46 96 1020.7
20260506040548 11 345 0.0 1.6 0.00 1.09 0.46 96 1020.8
20260506035539 11 0.0 0.0 0.00 1.09 0.46 96 1020.9
20260506034548 11 345 0.0 1.6 0.00 1.09 0.46 97 1020.9
20260506033518 11 285 0.0 1.6 0.00 1.09 0.46 97 1020.9
20260506032609 11 0.0 0.0 0.00 1.09 0.46 97 1021.3
20260506031600 11 0.0 0.0 0.00 1.09 0.46 97 1021.4
20260506030549 11 0.0 0.0 0.00 1.09 0.46 97 1021.4
20260506025539 11 0.0 0.0 0.00 1.09 0.46 97 1021.5
20260506024529 11 0.0 0.0 0.00 1.09 0.46 97 1021.6
20260506023519 11 197 0.0 1.6 0.00 1.09 0.46 97 1021.8
20260506022616 11 235 0.0 1.6 0.00 1.09 0.46 97 1021.9
20260506021601 11 0.0 0.0 0.00 1.09 0.46 97 1021.8
20260506020552 11 0.0 0.0 0.00 1.09 0.46 96 1021.9
20260506015540 11 0.0 0.0 0.00 1.09 0.46 96 1021.6
20260506014532 11 0.0 0.0 0.00 1.09 0.46 96 1021.7
20260506013520 11 243 0.0 0.0 0.00 1.09 0.46 96 1021.7
20260506012522 11 0.0 0.0 0.00 1.09 0.46 96 1021.8
20260506011600 11 0.0 0.0 0.00 1.09 0.46 96 1022.0
20260506010552 11 0.0 0.0 0.00 1.09 0.46 96 1022.2
20260506005540 11 0.0 0.0 0.00 1.09 0.46 96 1022.2
20260506004530 11 0.0 0.0 0.00 1.09 0.46 96 1022.2
20260506003541 11 0.0 0.0 0.00 1.09 0.46 96 1022.4
20260506002614 11 0.0 0.0 0.00 1.09 0.46 96 1022.5
20260506001602 11 0.0 0.0 0.00 1.09 0.46 96 1022.5
20260506000552 11 0.0 0.0 0.00 1.09 0.46 96 1022.3
20260505235542 11 0.0 0.0 0.20 1.09 0.46 96 1022.5
20260505234532 11 0.0 0.0 0.20 1.09 0.46 96 1022.5
20260505233524 11 0.0 0.0 0.18 1.07 0.43 96 1022.6
20260505232633 11 0.0 0.0 0.10 0.99 0.36 96 1022.7
20260505231603 11 0.0 0.0 0.05 0.94 0.30 96 1022.7
20260505230554 11 0.0 0.0 0.03 0.91 0.28 96 1022.6
20260505225603 11 244 0.0 0.0 0.25 0.89 0.25 96 1022.7
20260505224533 11 0.0 0.0 0.13 0.76 0.13 95 1022.8
20260505223523 11 0.0 0.0 0.05 0.69 0.05 95 1022.8
20260505222614 11 0.0 0.0 0.00 0.64 0.00 95 1023.0
20260505221605 11 0.0 0.0 0.00 0.64 0.00 96 1023.0
20260505220554 11 0.0 0.0 0.00 0.64 0.00 95 1022.9
20260505215543 11 0.0 0.0 0.00 0.64 0.66 95 1022.9
20260505214533 11 0.0 0.0 0.00 0.64 0.66 95 1023.2
20260505213545 11 0.0 0.0 0.00 0.64 0.66 95 1023.2
20260505212616 11 243 0.0 0.0 0.00 0.64 0.66 95 1023.4
20260505211604 11 0.0 0.0 0.00 0.64 0.66 95 1023.4
20260505210554 11 0.0 0.0 0.00 0.64 0.66 95 1023.4
20260505205544 11 0.0 0.0 0.00 0.64 0.66 95 1023.4
20260505204534 11 244 0.0 1.6 0.00 0.64 0.66 95 1023.4
20260505203524 11 239 1.6 1.6 0.00 0.64 0.66 95 1023.4
20260505202615 11 0.0 0.0 0.00 0.64 0.66 95 1023.6
20260505201625 11 0.0 0.0 0.00 0.64 0.66 95 1023.5
20260505200554 11 0.0 0.0 0.00 0.64 0.66 95 1023.5
20260505195546 11 232 0.0 0.0 0.00 0.64 0.66 94 1023.4
20260505194534 11 0.0 0.0 0.00 0.64 0.66 94 1023.4
20260505193525 11 217 0.0 1.6 0.00 0.64 0.66 94 1023.3
20260505192615 11 201 0.0 1.6 0.00 0.64 0.66 94 1023.2
20260505191605 11 0.0 0.0 0.00 0.64 0.66 94 1023.2
20260505190617 11 179 0.0 1.6 0.00 0.64 0.66 94 1023.2
20260505185545 11 0.0 0.0 0.00 0.64 0.66 93 1023.2
20260505184535 11 181 0.0 3.2 0.00 0.64 0.66 93 1023.1
20260505183527 11 193 1.6 1.6 0.00 0.64 0.66 93 1023.0
20260505182616 11 172 0.0 1.6 0.00 0.64 0.66 93 1023.0
20260505181606 11 190 1.6 3.2 0.00 0.64 0.66 93 1023.1
20260505180556 11 180 0.0 1.6 0.00 0.64 0.66 93 1022.9
20260505175551 11 176 1.6 4.8 0.03 0.64 0.66 93 1022.8
20260505174536 11 181 0.0 1.6 0.03 0.64 0.66 93 1022.8
20260505173547 11 185 1.6 4.8 0.03 0.64 0.66 93 1022.8
20260505172518 11 176 0.0 0.0 0.03 0.64 0.66 93 1022.9
20260505171628 11 194 1.6 3.2 0.00 0.61 0.64 93 1022.8
20260505170558 11 194 1.6 3.2 0.00 0.61 0.64 93 1022.8
20260505165549 11 187 0.0 3.2 0.10 0.61 0.64 93 1022.9
20260505164539 12 175 0.0 3.2 0.08 0.58 0.61 93 1022.9
20260505163528 12 181 1.6 3.2 0.05 0.56 0.58 93 1023.0
20260505162518 12 190 1.6 4.8 0.03 0.53 0.56 91 1023.0
20260505161609 12 193 0.0 1.6 0.03 0.53 0.56 91 1023.0
20260505160559 12 194 1.6 3.2 0.00 0.51 0.53 91 1022.9
20260505152519 12 190 0.0 1.6 0.00 0.43 0.46 89 1023.2
20260505151610 13 191 0.0 1.6 0.00 0.43 0.46 89 1023.1
20260505150600 13 194 0.0 3.2 0.00 0.43 0.46 89 1023.1
20260505140621 13 186 1.6 3.2 0.00 0.43 0.46 89 1023.3
20260505124541 15 355 0.0 1.6 0.00 0.38 0.41 77 1023.5
20260505123533 14 352 0.0 1.6 0.00 0.38 0.41 81 1023.5
20260505122524 14 357 1.6 3.2 0.00 0.38 0.41 82 1023.6
20260505121635 14 2 0.0 1.6 0.00 0.38 0.41 85 1023.6
20260505120604 13 14 0.0 1.6 0.00 0.38 0.41 85 1023.6
20260505115555 13 1 1.6 1.6 0.00 0.38 0.41 85 1023.7
20260505114545 13 9 0.0 1.6 0.00 0.38 0.41 89 1023.9
20260505113533 13 88 0.0 1.6 0.00 0.38 0.41 88 1023.9
20260505112523 13 306 0.0 0.0 0.00 0.38 0.41 88 1023.9
20260505111614 13 8 1.6 3.2 0.00 0.38 0.41 88 1024.0
20260505110604 12 78 0.0 1.6 0.00 0.38 0.41 90 1024.1
20260505101617 12 13 0.0 1.6 0.08 0.28 0.30 90 1024.2
20260505100606 12 49 1.6 3.2 0.03 0.25 0.25 89 1024.3
20260505095616 12 108 0.0 0.0 0.15 0.20 0.20 88 1024.4
20260505094605 12 110 0.0 0.0 0.08 0.13 0.13 86 1024.5
20260505093535 12 113 0.0 1.6 0.03 0.08 0.08 86 1024.5
20260505092525 12 136 0.0 0.0 0.00 0.05 0.05 84 1024.3
20260505091658 12 170 0.0 0.0 0.00 0.05 0.05 85 1024.2
20260505090607 12 174 0.0 0.0 0.00 0.05 0.05 86 1024.2
20260505085555 12 0.0 0.0 0.03 0.05 0.05 85 1024.2
20260505084545 12 174 0.0 0.0 0.03 0.05 0.05 84 1024.2
20260505083637 12 170 0.0 0.0 0.03 0.05 0.05 84 1024.2
20260505082526 12 181 0.0 1.6 0.03 0.05 0.05 85 1024.2
20260505081637 11 184 0.0 1.6 0.00 0.03 0.03 84 1024.1
20260505080607 12 175 1.6 3.2 0.00 0.03 0.03 82 1024.2
20260505075557 12 169 1.6 4.8 0.00 0.00 0.00 80 1024.1